SAS13TM LCLK-LMML

Flight info

Callsign SAS13TM
Flight time 2h 33m
Altitude 32000
Route PHA M31 GENOS DCT TOSKA UM978 VAXOS DCT KPC DCT ROTAS DCT ABNAT DCT EVIRA DCT AGARI M978 GZO
Aircraft B738/M-SDGIJ1LRWY/SB1

Departure

Time 2026-04-28 15:10
Airport Larnaca International Airport (LCLK)

Arrival

Time 2026-04-28 17:43
Airport Malta International Airport (LMML)
Time Latitude Longitude Altitude Speed Heading
2026-04-28 14:34 34.86991 33.61108 36 ft 0 kts 225°
2026-04-28 14:55 34.87000 33.61120 35 ft 2 kts 227°
2026-04-28 14:55 34.87011 33.61132 35 ft 2 kts 224°
2026-04-28 14:56 34.87021 33.61145 35 ft 1 kts 226°
2026-04-28 14:56 34.87028 33.61153 35 ft 2 kts 214°
2026-04-28 14:56 34.87042 33.61161 34 ft 2 kts 190°
2026-04-28 14:56 34.87057 33.61161 34 ft 2 kts 168°
2026-04-28 14:57 34.87071 33.61155 35 ft 2 kts 147°
2026-04-28 14:57 34.87076 33.61150 35 ft 0 kts 138°
2026-04-28 14:57 34.87070 33.61158 34 ft 4 kts 134°
2026-04-28 14:57 34.87058 33.61174 34 ft 0 kts 134°
2026-04-28 14:58 34.87055 33.61177 34 ft 0 kts 135°
2026-04-28 15:00 34.87052 33.61180 33 ft 1 kts 136°
2026-04-28 15:00 34.87028 33.61209 32 ft 7 kts 136°
2026-04-28 15:00 34.86987 33.61258 30 ft 8 kts 136°
2026-04-28 15:01 34.86943 33.61316 27 ft 10 kts 116°
2026-04-28 15:01 34.86974 33.61407 25 ft 14 kts 45°
2026-04-28 15:01 34.87055 33.61507 22 ft 17 kts 45°
2026-04-28 15:01 34.87145 33.61617 19 ft 18 kts 45°
2026-04-28 15:02 34.87237 33.61729 17 ft 18 kts 45°
2026-04-28 15:02 34.87328 33.61839 15 ft 18 kts 45°
2026-04-28 15:02 34.87406 33.61933 15 ft 14 kts 45°
2026-04-28 15:02 34.87470 33.62012 15 ft 10 kts 45°
2026-04-28 15:03 34.87511 33.62076 15 ft 9 kts 69°
2026-04-28 15:03 34.87503 33.62145 15 ft 7 kts 105°
2026-04-28 15:03 34.87519 33.62211 15 ft 9 kts 49°
2026-04-28 15:03 34.87571 33.62275 15 ft 11 kts 45°
2026-04-28 15:04 34.87634 33.62353 15 ft 14 kts 46°
2026-04-28 15:04 34.87711 33.62447 15 ft 17 kts 45°
2026-04-28 15:04 34.87800 33.62555 15 ft 17 kts 45°
2026-04-28 15:04 34.87877 33.62649 18 ft 14 kts 45°
2026-04-28 15:05 34.87940 33.62727 20 ft 12 kts 45°
2026-04-28 15:05 34.88013 33.62815 21 ft 15 kts 45°
2026-04-28 15:05 34.88086 33.62904 22 ft 14 kts 45°
2026-04-28 15:05 34.88164 33.62999 21 ft 17 kts 45°
2026-04-28 15:06 34.88255 33.63111 20 ft 18 kts 45°
2026-04-28 15:06 34.88337 33.63211 20 ft 15 kts 45°
2026-04-28 15:06 34.88410 33.63298 19 ft 12 kts 45°
2026-04-28 15:06 34.88443 33.63368 18 ft 8 kts 96°
2026-04-28 15:07 34.88417 33.63419 18 ft 6 kts 134°
2026-04-28 15:07 34.88412 33.63425 18 ft 0 kts 133°
2026-04-28 15:08 34.88408 33.63431 18 ft 4 kts 134°
2026-04-28 15:08 34.88376 33.63470 17 ft 5 kts 135°
2026-04-28 15:08 34.88347 33.63503 17 ft 7 kts 144°
2026-04-28 15:08 34.88299 33.63516 16 ft 7 kts 200°
2026-04-28 15:09 34.88256 33.63472 16 ft 11 kts 225°
2026-04-28 15:09 34.88047 33.63218 17 ft 81 kts 225°
2026-04-28 15:09 34.87477 33.62523 15 ft 150 kts 225°
2026-04-28 15:09 34.86925 33.61856 122 ft 179 kts 225°
2026-04-28 15:10 34.85891 33.60504 1401 ft 167 kts 226°
2026-04-28 15:10 34.85069 33.59466 2052 ft 174 kts 226°
2026-04-28 15:10 34.84162 33.58311 2307 ft 205 kts 227°
2026-04-28 15:10 34.83189 33.57024 3074 ft 209 kts 227°
2026-04-28 15:11 34.82150 33.55670 3546 ft 230 kts 227°
2026-04-28 15:11 34.81012 33.54217 4145 ft 245 kts 227°
2026-04-28 15:11 34.79803 33.52677 4739 ft 259 kts 227°
2026-04-28 15:11 34.78548 33.51067 5460 ft 267 kts 228°
2026-04-28 15:12 34.77274 33.49429 6210 ft 272 kts 228°
2026-04-28 15:12 34.75956 33.47742 6970 ft 277 kts 228°
2026-04-28 15:12 34.74634 33.46052 7717 ft 281 kts 228°
2026-04-28 15:12 34.73279 33.44317 8474 ft 286 kts 228°
2026-04-28 15:13 34.71907 33.42561 9212 ft 290 kts 229°
2026-04-28 15:13 34.70510 33.40772 9937 ft 294 kts 229°
2026-04-28 15:13 34.69151 33.38910 10479 ft 304 kts 235°
2026-04-28 15:13 34.68142 33.36596 10861 ft 318 kts 256°
2026-04-28 15:14 34.67905 33.33909 11262 ft 331 kts 272°
2026-04-28 15:14 34.68040 33.31069 11651 ft 346 kts 275°
2026-04-28 15:14 34.68213 33.28110 12244 ft 354 kts 274°
2026-04-28 15:14 34.68375 33.25095 12915 ft 360 kts 274°
2026-04-28 15:15 34.68516 33.22100 13594 ft 364 kts 274°
2026-04-28 15:15 34.68607 33.20019 14063 ft 366 kts 274°
2026-04-28 15:15 34.68774 33.15892 14976 ft 371 kts 273°
2026-04-28 15:15 34.68895 33.12776 15658 ft 375 kts 273°
2026-04-28 15:16 34.69017 33.09628 16330 ft 378 kts 273°
2026-04-28 15:16 34.69139 33.06442 16995 ft 381 kts 273°
2026-04-28 15:16 34.69263 33.03215 17649 ft 384 kts 273°
2026-04-28 15:16 34.69388 32.99952 18291 ft 388 kts 273°
2026-04-28 15:17 34.69513 32.96690 18917 ft 391 kts 273°
2026-04-28 15:17 34.69638 32.93393 19538 ft 394 kts 273°
2026-04-28 15:17 34.69762 32.90074 20144 ft 397 kts 273°
2026-04-28 15:17 34.69887 32.86733 20725 ft 400 kts 272°
2026-04-28 15:18 34.70012 32.83333 21299 ft 403 kts 272°
2026-04-28 15:18 34.70137 32.79942 21855 ft 405 kts 272°
2026-04-28 15:18 34.70260 32.76556 22394 ft 408 kts 272°
2026-04-28 15:18 34.70386 32.73087 22918 ft 411 kts 272°
2026-04-28 15:19 34.70511 32.69609 23433 ft 414 kts 272°
2026-04-28 15:19 34.70636 32.66107 23938 ft 417 kts 272°
2026-04-28 15:19 34.70760 32.62603 24433 ft 420 kts 272°
2026-04-28 15:19 34.70884 32.59080 24921 ft 422 kts 272°
2026-04-28 15:20 34.71007 32.55526 25401 ft 425 kts 272°
2026-04-28 15:20 34.71130 32.51931 25873 ft 427 kts 272°
2026-04-28 15:20 34.71162 32.48314 26333 ft 430 kts 269°
2026-04-28 15:20 34.71048 32.44701 26771 ft 433 kts 267°
2026-04-28 15:21 34.70853 32.41019 27212 ft 435 kts 266°
2026-04-28 15:21 34.70626 32.37349 27643 ft 438 kts 266°
2026-04-28 15:21 34.70391 32.33651 28067 ft 441 kts 265°
2026-04-28 15:21 34.70161 32.29985 28498 ft 442 kts 265°
2026-04-28 15:22 34.69933 32.26242 29123 ft 438 kts 266°
2026-04-28 15:22 34.69715 32.22562 29664 ft 437 kts 266°
2026-04-28 15:22 34.69505 32.18935 30213 ft 435 kts 266°
2026-04-28 15:22 34.69297 32.15270 30787 ft 433 kts 266°
2026-04-28 15:23 34.69093 32.11639 31335 ft 431 kts 266°
2026-04-28 15:23 34.68891 32.08035 31868 ft 429 kts 266°
2026-04-28 15:23 34.68688 32.04404 32028 ft 433 kts 266°
2026-04-28 15:24 34.68286 31.97230 32040 ft 424 kts 266°
2026-04-28 15:24 34.68147 31.90137 32002 ft 422 kts 273°
2026-04-28 15:25 34.68874 31.83085 31944 ft 423 kts 279°
2026-04-28 15:25 34.69988 31.76050 31949 ft 424 kts 281°
2026-04-28 15:26 34.71156 31.69083 31961 ft 424 kts 281°
2026-04-28 15:26 34.72307 31.62073 31961 ft 423 kts 281°
2026-04-28 15:27 34.73430 31.55052 31964 ft 423 kts 281°
2026-04-28 15:27 34.74533 31.48048 31966 ft 423 kts 281°
2026-04-28 15:28 34.75624 31.41055 31965 ft 423 kts 281°
2026-04-28 15:28 34.76714 31.34026 31965 ft 423 kts 280°
2026-04-28 15:29 34.77793 31.27038 31964 ft 423 kts 280°
2026-04-28 15:29 34.78873 31.20023 31964 ft 423 kts 280°
2026-04-28 15:30 34.79951 31.12986 31963 ft 423 kts 280°
2026-04-28 15:30 34.81021 31.05974 31963 ft 423 kts 280°
2026-04-28 15:31 34.82087 30.98965 31962 ft 423 kts 280°
2026-04-28 15:31 34.83149 30.91949 31962 ft 423 kts 280°
2026-04-28 15:32 34.84206 30.84943 31961 ft 422 kts 280°
2026-04-28 15:32 34.85263 30.77904 31961 ft 422 kts 280°
2026-04-28 15:33 34.86306 30.70925 31958 ft 422 kts 280°
2026-04-28 15:33 34.87353 30.63898 31954 ft 422 kts 280°
2026-04-28 15:34 34.88390 30.56905 31953 ft 421 kts 280°
2026-04-28 15:34 34.89422 30.49917 31952 ft 421 kts 280°
2026-04-28 15:35 34.90451 30.42926 31952 ft 421 kts 280°
2026-04-28 15:35 34.91990 30.32408 31950 ft 421 kts 280°
2026-04-28 15:36 34.93014 30.25378 31948 ft 421 kts 280°
2026-04-28 15:36 34.94028 30.18383 31946 ft 421 kts 280°
2026-04-28 15:37 34.95040 30.11374 31946 ft 421 kts 280°
2026-04-28 15:37 34.95879 30.05543 31946 ft 421 kts 280°
2026-04-28 15:38 34.96912 29.97302 31945 ft 421 kts 275°
2026-04-28 15:38 34.97260 29.90189 31947 ft 421 kts 273°
2026-04-28 15:39 34.97473 29.83128 31948 ft 420 kts 272°
2026-04-28 15:39 34.97701 29.76007 31946 ft 419 kts 273°
2026-04-28 15:40 34.97955 29.68945 31945 ft 419 kts 273°
2026-04-28 15:40 34.98224 29.61876 31946 ft 419 kts 273°
2026-04-28 15:41 34.98500 29.54787 31946 ft 419 kts 273°
2026-04-28 15:41 34.98773 29.47701 31946 ft 419 kts 273°
2026-04-28 15:42 34.99040 29.40648 31946 ft 419 kts 273°
2026-04-28 15:42 34.99459 29.33569 31945 ft 419 kts 278°
2026-04-28 15:43 35.00589 29.26583 31946 ft 419 kts 283°
2026-04-28 15:43 35.02007 29.19747 31946 ft 419 kts 284°
2026-04-28 15:44 35.03478 29.12849 31946 ft 419 kts 284°
2026-04-28 15:44 35.04908 29.06025 31946 ft 419 kts 284°
2026-04-28 15:45 35.06325 28.99135 31946 ft 419 kts 284°
2026-04-28 15:45 35.07723 28.92266 31944 ft 419 kts 284°
2026-04-28 15:46 35.09116 28.85378 31938 ft 419 kts 284°
2026-04-28 15:46 35.10506 28.78473 31932 ft 419 kts 284°
2026-04-28 15:47 35.11886 28.71596 31932 ft 418 kts 284°
2026-04-28 15:47 35.13260 28.64725 31932 ft 418 kts 284°
2026-04-28 15:48 35.14632 28.57846 31932 ft 418 kts 284°
2026-04-28 15:48 35.15999 28.50968 31933 ft 418 kts 284°
2026-04-28 15:49 35.17368 28.44063 31932 ft 417 kts 283°
2026-04-28 15:49 35.18722 28.37202 31932 ft 418 kts 283°
2026-04-28 15:50 35.20080 28.30308 31931 ft 418 kts 283°
2026-04-28 15:50 35.21430 28.23433 31936 ft 418 kts 283°
2026-04-28 15:51 35.22778 28.16534 31951 ft 418 kts 283°
2026-04-28 15:51 35.24130 28.09601 31962 ft 419 kts 283°
2026-04-28 15:52 35.25466 28.02725 31964 ft 418 kts 283°
2026-04-28 15:52 35.26806 27.95808 31962 ft 418 kts 283°
2026-04-28 15:53 35.28136 27.88918 31957 ft 418 kts 283°
2026-04-28 15:53 35.29469 27.81989 31951 ft 418 kts 283°
2026-04-28 15:54 35.30794 27.75085 31952 ft 418 kts 283°
2026-04-28 15:54 35.32115 27.68172 31957 ft 418 kts 283°
2026-04-28 15:55 35.33427 27.61287 31959 ft 417 kts 283°
2026-04-28 15:55 35.34741 27.54368 31959 ft 417 kts 283°
2026-04-28 15:56 35.36050 27.47458 31960 ft 417 kts 283°
2026-04-28 15:56 35.37353 27.40551 31961 ft 417 kts 283°
2026-04-28 15:57 35.38652 27.33640 31963 ft 418 kts 283°
2026-04-28 15:57 35.39946 27.26741 31965 ft 418 kts 283°
2026-04-28 15:58 35.41243 27.19792 31965 ft 418 kts 283°
2026-04-28 15:58 35.42485 27.12857 31965 ft 417 kts 280°
2026-04-28 15:59 35.43177 27.07007 31965 ft 417 kts 277°
2026-04-28 15:59 35.43951 26.98809 31965 ft 417 kts 277°
2026-04-28 16:00 35.44621 26.91768 31965 ft 417 kts 277°
2026-04-28 16:00 35.45315 26.84750 31966 ft 417 kts 278°
2026-04-28 16:01 35.46024 26.77714 31968 ft 416 kts 278°
2026-04-28 16:01 35.46737 26.70660 31970 ft 416 kts 278°
2026-04-28 16:02 35.47443 26.63672 31973 ft 416 kts 278°
2026-04-28 16:02 35.48151 26.56636 31977 ft 416 kts 278°
2026-04-28 16:03 35.48850 26.49644 31981 ft 415 kts 278°
2026-04-28 16:03 35.49548 26.42621 31985 ft 415 kts 278°
2026-04-28 16:04 35.50240 26.35611 31989 ft 415 kts 278°
2026-04-28 16:04 35.50812 26.29774 31992 ft 415 kts 277°
2026-04-28 16:05 35.51608 26.21602 31999 ft 415 kts 277°
2026-04-28 16:05 35.52288 26.14580 32004 ft 415 kts 277°
2026-04-28 16:06 35.52964 26.07567 32010 ft 415 kts 277°
2026-04-28 16:06 35.53637 26.00538 32016 ft 415 kts 278°
2026-04-28 16:07 35.54303 25.93541 32021 ft 414 kts 278°
2026-04-28 16:08 35.55295 25.83035 32027 ft 414 kts 278°
2026-04-28 16:08 35.55955 25.75991 32033 ft 415 kts 278°
2026-04-28 16:09 35.56931 25.65487 32041 ft 414 kts 278°
2026-04-28 16:10 35.57899 25.54975 32040 ft 414 kts 278°
2026-04-28 16:10 35.58854 25.44496 32037 ft 414 kts 278°
2026-04-28 16:11 35.60122 25.30440 32044 ft 414 kts 277°
2026-04-28 16:12 35.61058 25.19929 32062 ft 413 kts 277°
2026-04-28 16:13 35.61981 25.09454 32065 ft 413 kts 278°
2026-04-28 16:14 35.63200 24.95466 32065 ft 413 kts 278°
2026-04-28 16:15 35.64405 24.81457 32065 ft 413 kts 278°
2026-04-28 16:15 35.64999 24.74476 32064 ft 412 kts 278°
2026-04-28 16:16 35.65883 24.63998 32061 ft 411 kts 278°
2026-04-28 16:17 35.66756 24.53547 32054 ft 412 kts 278°
2026-04-28 16:17 35.67333 24.46569 32050 ft 412 kts 278°
2026-04-28 16:18 35.67909 24.39560 32048 ft 412 kts 278°
2026-04-28 16:18 35.68477 24.32597 32046 ft 412 kts 277°
2026-04-28 16:19 35.69044 24.25590 32044 ft 412 kts 277°
2026-04-28 16:19 35.69606 24.18599 32043 ft 412 kts 278°
2026-04-28 16:20 35.70163 24.11612 32042 ft 413 kts 278°
2026-04-28 16:20 35.70720 24.04590 32041 ft 413 kts 278°
2026-04-28 16:21 35.71270 23.97590 32041 ft 413 kts 278°
2026-04-28 16:21 35.71819 23.90558 32041 ft 412 kts 278°
2026-04-28 16:22 35.72360 23.83568 32044 ft 412 kts 278°
2026-04-28 16:22 35.72895 23.76613 32048 ft 412 kts 278°
2026-04-28 16:23 35.73432 23.69577 32050 ft 412 kts 278°
2026-04-28 16:23 35.73963 23.62557 32050 ft 411 kts 278°
2026-04-28 16:24 35.74488 23.55562 32051 ft 411 kts 278°
2026-04-28 16:24 35.75006 23.48597 32053 ft 410 kts 278°
2026-04-28 16:25 35.75522 23.41618 32057 ft 410 kts 278°
2026-04-28 16:25 35.76031 23.34666 32058 ft 410 kts 277°
2026-04-28 16:26 35.76539 23.27697 32055 ft 409 kts 277°
2026-04-28 16:26 35.77038 23.20775 32054 ft 409 kts 277°
2026-04-28 16:27 35.77538 23.13794 32058 ft 408 kts 277°
2026-04-28 16:28 35.78275 23.03388 32065 ft 408 kts 277°
2026-04-28 16:28 35.78761 22.96453 32071 ft 408 kts 277°
2026-04-28 16:29 35.79483 22.86049 32074 ft 407 kts 277°
2026-04-28 16:30 35.80195 22.75656 32076 ft 406 kts 277°
2026-04-28 16:30 35.80665 22.68720 32076 ft 406 kts 277°
2026-04-28 16:31 35.81127 22.61846 32077 ft 406 kts 277°
2026-04-28 16:31 35.81588 22.54919 32077 ft 405 kts 277°
2026-04-28 16:32 35.82044 22.48028 32077 ft 405 kts 277°
2026-04-28 16:32 35.82722 22.37651 32076 ft 406 kts 277°
2026-04-28 16:33 35.83019 22.33051 32076 ft 406 kts 277°
2026-04-28 16:33 35.83611 22.23830 32075 ft 406 kts 277°
2026-04-28 16:34 35.84049 22.16915 32074 ft 406 kts 277°
2026-04-28 16:34 35.84484 22.09982 32073 ft 406 kts 277°
2026-04-28 16:35 35.84916 22.03057 32073 ft 406 kts 277°
2026-04-28 16:35 35.85342 21.96148 32072 ft 406 kts 277°
2026-04-28 16:36 35.85766 21.89223 32073 ft 406 kts 277°
2026-04-28 16:36 35.86186 21.82286 32071 ft 406 kts 277°
2026-04-28 16:37 35.86600 21.75381 32068 ft 406 kts 277°
2026-04-28 16:38 35.87215 21.64989 32065 ft 406 kts 277°
2026-04-28 16:38 35.87618 21.58093 32064 ft 405 kts 277°
2026-04-28 16:39 35.88019 21.51168 32064 ft 405 kts 277°
2026-04-28 16:39 35.88415 21.44272 32064 ft 404 kts 277°
2026-04-28 16:40 35.88808 21.37350 32064 ft 404 kts 277°
2026-04-28 16:40 35.89195 21.30458 32064 ft 404 kts 276°
2026-04-28 16:41 35.89578 21.23565 32064 ft 403 kts 276°
2026-04-28 16:41 35.89955 21.16718 32064 ft 402 kts 276°
2026-04-28 16:42 35.90329 21.09857 32064 ft 401 kts 276°
2026-04-28 16:42 35.90696 21.03023 32064 ft 400 kts 277°
2026-04-28 16:43 35.91061 20.96182 32064 ft 400 kts 277°
2026-04-28 16:43 35.91421 20.89366 32064 ft 399 kts 277°
2026-04-28 16:44 35.91777 20.82550 32065 ft 398 kts 276°
2026-04-28 16:44 35.92127 20.75763 32065 ft 398 kts 276°
2026-04-28 16:45 35.92474 20.68989 32061 ft 399 kts 276°
2026-04-28 16:45 35.92818 20.62173 32058 ft 399 kts 276°
2026-04-28 16:46 35.93158 20.55375 32057 ft 399 kts 276°
2026-04-28 16:46 35.93494 20.48555 32057 ft 398 kts 276°
2026-04-28 16:47 35.93825 20.41765 32056 ft 398 kts 276°
2026-04-28 16:47 35.94154 20.34938 32055 ft 398 kts 276°
2026-04-28 16:48 35.94476 20.28175 32056 ft 399 kts 276°
2026-04-28 16:48 35.94697 20.21343 32056 ft 401 kts 271°
2026-04-28 16:49 35.94316 20.14484 32057 ft 403 kts 268°
2026-04-28 16:49 35.93751 20.07601 32056 ft 403 kts 268°
2026-04-28 16:50 35.93204 20.00757 32056 ft 403 kts 268°
2026-04-28 16:50 35.92685 19.93891 32056 ft 403 kts 268°
2026-04-28 16:51 35.92180 19.87023 32055 ft 403 kts 268°
2026-04-28 16:51 35.91677 19.80126 32054 ft 403 kts 268°
2026-04-28 16:52 35.91177 19.73286 32054 ft 402 kts 268°
2026-04-28 16:52 35.90673 19.66440 32053 ft 402 kts 268°
2026-04-28 16:53 35.90165 19.59597 32052 ft 402 kts 268°
2026-04-28 16:53 35.89654 19.52764 32051 ft 401 kts 268°
2026-04-28 16:54 35.89138 19.45914 32051 ft 400 kts 268°
2026-04-28 16:54 35.88623 19.39141 32050 ft 399 kts 269°
2026-04-28 16:55 35.88102 19.32326 32050 ft 399 kts 268°
2026-04-28 16:55 35.87579 19.25550 32049 ft 398 kts 268°
2026-04-28 16:56 35.87055 19.18802 32049 ft 396 kts 268°
2026-04-28 16:56 35.86529 19.12082 32048 ft 395 kts 268°
2026-04-28 16:57 35.86262 19.05397 32048 ft 391 kts 274°
2026-04-28 16:57 35.86388 18.98717 32047 ft 389 kts 275°
2026-04-28 16:58 35.86561 18.92118 32047 ft 388 kts 275°
2026-04-28 16:58 35.86705 18.85476 32047 ft 387 kts 275°
2026-04-28 16:59 35.86818 18.78871 32046 ft 386 kts 275°
2026-04-28 16:59 35.86923 18.72275 32046 ft 385 kts 275°
2026-04-28 17:00 35.87014 18.65732 32046 ft 385 kts 275°
2026-04-28 17:00 35.87105 18.59148 32045 ft 384 kts 275°
2026-04-28 17:01 35.87188 18.52601 32039 ft 384 kts 275°
2026-04-28 17:01 35.87267 18.46014 32032 ft 383 kts 275°
2026-04-28 17:02 35.87342 18.39511 32031 ft 382 kts 275°
2026-04-28 17:02 35.87416 18.32970 32031 ft 383 kts 274°
2026-04-28 17:03 35.87521 18.23177 32031 ft 382 kts 274°
2026-04-28 17:03 35.87582 18.16635 32030 ft 383 kts 274°
2026-04-28 17:04 35.87672 18.06805 32029 ft 383 kts 274°
2026-04-28 17:05 35.87758 17.96965 32037 ft 383 kts 274°
2026-04-28 17:06 35.87830 17.87129 32040 ft 383 kts 274°
2026-04-28 17:06 35.87893 17.77323 32039 ft 383 kts 274°
2026-04-28 17:07 35.87930 17.70795 32039 ft 382 kts 274°
2026-04-28 17:07 35.87966 17.64249 32040 ft 382 kts 274°
2026-04-28 17:08 35.88003 17.57721 32046 ft 381 kts 274°
2026-04-28 17:08 35.88034 17.51212 32049 ft 381 kts 274°
2026-04-28 17:09 35.88059 17.44722 32050 ft 380 kts 274°
2026-04-28 17:09 35.88082 17.38226 32048 ft 379 kts 274°
2026-04-28 17:10 35.88103 17.31735 32047 ft 379 kts 273°
2026-04-28 17:10 35.88117 17.25251 32046 ft 378 kts 274°
2026-04-28 17:11 35.88128 17.18813 32046 ft 378 kts 274°
2026-04-28 17:11 35.88134 17.12391 32047 ft 377 kts 274°
2026-04-28 17:12 35.88142 17.05951 32049 ft 376 kts 273°
2026-04-28 17:12 35.88142 16.99511 32049 ft 375 kts 273°
2026-04-28 17:13 35.88153 16.93086 32047 ft 374 kts 275°
2026-04-28 17:13 35.88504 16.86747 32046 ft 372 kts 278°
2026-04-28 17:14 35.88998 16.80443 32045 ft 371 kts 278°
2026-04-28 17:14 35.89470 16.74101 32046 ft 371 kts 278°
2026-04-28 17:15 35.89910 16.67802 32046 ft 371 kts 277°
2026-04-28 17:15 35.90330 16.61491 32047 ft 371 kts 277°
2026-04-28 17:16 35.90742 16.55175 32046 ft 370 kts 277°
2026-04-28 17:16 35.91152 16.48866 32046 ft 370 kts 277°
2026-04-28 17:17 35.91562 16.42585 32046 ft 369 kts 277°
2026-04-28 17:17 35.91964 16.36270 32047 ft 369 kts 277°
2026-04-28 17:18 35.92361 16.29975 32046 ft 369 kts 277°
2026-04-28 17:18 35.92754 16.23713 32047 ft 368 kts 277°
2026-04-28 17:19 35.93147 16.17413 32046 ft 369 kts 276°
2026-04-28 17:19 35.93534 16.11133 32046 ft 369 kts 276°
2026-04-28 17:20 35.93856 16.05886 32046 ft 369 kts 276°
2026-04-28 17:20 35.94301 15.98582 31716 ft 362 kts 277°
2026-04-28 17:21 35.94487 15.95502 31258 ft 360 kts 277°
2026-04-28 17:21 35.94672 15.92417 30794 ft 358 kts 277°
2026-04-28 17:21 35.94854 15.89372 30184 ft 358 kts 277°
2026-04-28 17:22 35.95215 15.83315 29016 ft 353 kts 277°
2026-04-28 17:22 35.95389 15.80344 28462 ft 351 kts 277°
2026-04-28 17:22 35.95563 15.77365 27895 ft 348 kts 277°
2026-04-28 17:23 35.95909 15.71461 26780 ft 341 kts 277°
2026-04-28 17:23 35.96077 15.68562 26241 ft 338 kts 277°
2026-04-28 17:23 35.96240 15.65720 25722 ft 336 kts 277°
2026-04-28 17:23 35.96407 15.62825 25201 ft 343 kts 276°
2026-04-28 17:24 35.96613 15.59880 24589 ft 349 kts 278°
2026-04-28 17:24 35.96937 15.56932 23975 ft 348 kts 280°
2026-04-28 17:24 35.97318 15.53995 23405 ft 345 kts 281°
2026-04-28 17:24 35.97709 15.51084 22855 ft 342 kts 281°
2026-04-28 17:25 35.98093 15.48200 22325 ft 340 kts 281°
2026-04-28 17:25 35.98819 15.42531 21297 ft 335 kts 280°
2026-04-28 17:25 35.99175 15.39681 20780 ft 333 kts 280°
2026-04-28 17:26 35.99520 15.36875 20267 ft 331 kts 280°
2026-04-28 17:26 35.99858 15.34109 19761 ft 329 kts 279°
2026-04-28 17:26 36.00198 15.31320 19252 ft 327 kts 279°
2026-04-28 17:26 36.00532 15.28565 18771 ft 325 kts 279°
2026-04-28 17:27 36.00864 15.25818 18314 ft 325 kts 279°
2026-04-28 17:27 36.01196 15.23071 17842 ft 329 kts 279°
2026-04-28 17:27 36.01531 15.20291 17368 ft 327 kts 279°
2026-04-28 17:27 36.01865 15.17521 16874 ft 324 kts 278°
2026-04-28 17:28 36.02192 15.14790 16383 ft 322 kts 278°
2026-04-28 17:28 36.02839 15.09383 15410 ft 316 kts 278°
2026-04-28 17:28 36.03158 15.06710 14925 ft 314 kts 278°
2026-04-28 17:29 36.03471 15.04081 14450 ft 311 kts 278°
2026-04-28 17:29 36.03785 15.01442 13977 ft 308 kts 278°
2026-04-28 17:29 36.04095 14.98833 13506 ft 306 kts 278°
2026-04-28 17:30 36.04700 14.93702 12581 ft 301 kts 278°
2026-04-28 17:30 36.05299 14.88626 11664 ft 297 kts 278°
2026-04-28 17:30 36.05595 14.86118 11212 ft 295 kts 278°
2026-04-28 17:31 36.05885 14.83649 10768 ft 295 kts 278°
2026-04-28 17:31 36.06466 14.78693 10285 ft 280 kts 278°
2026-04-28 17:32 36.06994 14.74153 9965 ft 259 kts 278°
2026-04-28 17:32 36.07250 14.71950 9609 ft 262 kts 278°
2026-04-28 17:32 36.07512 14.69696 9266 ft 268 kts 278°
2026-04-28 17:32 36.07775 14.67430 8917 ft 266 kts 278°
2026-04-28 17:33 36.08035 14.65180 8577 ft 266 kts 278°
2026-04-28 17:33 36.08299 14.62897 8230 ft 266 kts 278°
2026-04-28 17:33 36.08559 14.60639 7887 ft 266 kts 278°
2026-04-28 17:33 36.08646 14.59888 7772 ft 266 kts 278°
2026-04-28 17:34 36.09076 14.56156 7200 ft 262 kts 278°
2026-04-28 17:34 36.09330 14.53943 6861 ft 260 kts 278°
2026-04-28 17:34 36.09581 14.51750 6560 ft 257 kts 278°
2026-04-28 17:34 36.09829 14.49581 6427 ft 254 kts 278°
2026-04-28 17:35 36.10075 14.47422 6155 ft 255 kts 278°
2026-04-28 17:35 36.10321 14.45267 5804 ft 252 kts 278°
2026-04-28 17:35 36.10563 14.43147 5480 ft 249 kts 278°
2026-04-28 17:35 36.10696 14.41049 5219 ft 242 kts 268°
2026-04-28 17:36 36.10271 14.39060 5100 ft 239 kts 239°
2026-04-28 17:36 36.09193 14.37506 4973 ft 238 kts 223°
2026-04-28 17:36 36.07987 14.36134 4897 ft 232 kts 223°
2026-04-28 17:36 36.06830 14.34788 4735 ft 227 kts 223°
2026-04-28 17:37 36.05714 14.33447 4449 ft 223 kts 223°
2026-04-28 17:37 36.04617 14.32111 4181 ft 217 kts 223°
2026-04-28 17:37 36.03557 14.30839 3997 ft 212 kts 220°
2026-04-28 17:37 36.02322 14.29856 3939 ft 212 kts 197°
2026-04-28 17:38 36.00864 14.29786 3848 ft 210 kts 163°
2026-04-28 17:38 35.99653 14.30643 3699 ft 199 kts 137°
2026-04-28 17:38 35.98682 14.31811 3546 ft 189 kts 135°
2026-04-28 17:38 35.97760 14.32923 3369 ft 183 kts 135°
2026-04-28 17:39 35.96877 14.33999 3204 ft 175 kts 134°
2026-04-28 17:39 35.96036 14.35043 3082 ft 165 kts 134°
2026-04-28 17:39 35.94488 14.36959 2731 ft 154 kts 134°
2026-04-28 17:40 35.93763 14.37857 2506 ft 145 kts 134°
2026-04-28 17:40 35.93037 14.38758 2349 ft 148 kts 134°
2026-04-28 17:40 35.92316 14.39647 2118 ft 145 kts 134°
2026-04-28 17:40 35.91604 14.40524 1945 ft 146 kts 135°
2026-04-28 17:41 35.90872 14.41388 1717 ft 148 kts 134°
2026-04-28 17:41 35.90162 14.42292 1561 ft 145 kts 133°
2026-04-28 17:41 35.89449 14.43186 1329 ft 147 kts 133°
2026-04-28 17:41 35.88732 14.44069 1148 ft 145 kts 134°
2026-04-28 17:42 35.88020 14.44952 939 ft 144 kts 133°
2026-04-28 17:42 35.87553 14.45529 830 ft 143 kts 134°
2026-04-28 17:42 35.86613 14.46689 567 ft 143 kts 132°
2026-04-28 17:42 35.85909 14.47556 387 ft 143 kts 133°
2026-04-28 17:43 35.85207 14.48428 263 ft 137 kts 133°
2026-04-28 17:43 35.84753 14.48988 256 ft 46 kts 135°
2026-04-28 17:43 35.84565 14.49224 253 ft 34 kts 134°
2026-04-28 17:43 35.84470 14.49415 250 ft 22 kts 109°
2026-04-28 17:44 35.84456 14.49468 249 ft 0 kts 103°
2026-04-28 17:44 35.84452 14.49497 249 ft 4 kts 98°
2026-04-28 17:44 35.84455 14.49538 248 ft 5 kts 69°
2026-04-28 17:44 35.84460 14.49548 247 ft 2 kts 51°
2026-04-28 17:45 35.84483 14.49566 247 ft 5 kts 19°
2026-04-28 17:45 35.84523 14.49561 246 ft 6 kts 333°
2026-04-28 17:45 35.84565 14.49539 246 ft 6 kts 353°
2026-04-28 17:45 35.84610 14.49559 244 ft 7 kts 36°
2026-04-28 17:46 35.84655 14.49573 244 ft 7 kts 351°
2026-04-28 17:46 35.84700 14.49550 244 ft 6 kts 326°
2026-04-28 17:46 35.84743 14.49520 244 ft 8 kts 342°
2026-04-28 17:46 35.84791 14.49517 244 ft 4 kts 359°
2026-04-28 17:47 35.84812 14.49516 244 ft 1 kts 359°